Regional Weather Roundup
Issued by NWS Jackson, KY

Home | Current Version | Previous Version | Graphics & Text | Print | Product List | Glossary On
Versions: 1 2 3 4 5 6 7 8 9 10 11 12 13 14 15 16 17 18 19 20 21 22 23 24 25 26 27 28 29 30 31 32 33 34 35 36 37 38 39 40 41 42 43 44 45 46 47 48 49 50
592
ASUS43 KJKL 230510
RWRJKL

EAST KENTUCKY HOURLY WEATHER ROUNDUP
NATIONAL WEATHER SERVICE JACKSON KY
100 AM EDT WED AUG 23 2017

NOTE: "FAIR" INDICATES FEW OR NO CLOUDS BELOW 12,000 FEET WITH
NO SIGNIFICANT WEATHER AND/OR OBSTRUCTIONS TO VISIBILITY.

* THESE REPORTS ARE NOT UNDER NWS QUALITY CONTROL AND MAY NOT
  REPORT WEATHER SUCH AS PRECIPITATION AND FOG.

KYZ079-080-083-085-087-088-110-112-115-119-120-230600
...EASTERN KENTUCKY...

CITY           SKY/WX    TMP DP  RH WIND       PRES   REMARKS
JACKSON        FOG       70  69  97 CALM      29.99R VSB 3/4
LONDON         LGT RAIN  70  68  93 S6        30.00R
SOMERSET*      CLOUDY    70  70 100 SW3       30.01R
MONTICELLO*    CLOUDY    72  72 100 W8        30.02R
WILLIAMSBURG*  CLOUDY    70  70 100 SW3       30.00S
MIDDLESBORO*   RAIN      73  73 100 CALM      30.00R
HARLAN APT*    CLOUDY    70  68  94 CALM      30.02S
PIKE CO APT*   CLOUDY    70  70 100 CALM      29.99S FOG
BIG SANDY APT* CLOUDY    71  71 100 SW5       29.97S
MOREHEAD APT*  CLOUDY    72  70  94 CALM      29.98S
$$

KYZ035-036-041-042-044-050-067-078-099-230600
...CENTRAL KENTUCKY...

CITY           SKY/WX    TMP DP  RH WIND       PRES   REMARKS
MT STERLING*   CLOUDY    70  70 100 W3        29.99R
FLEMING/MASON* CLOUDY    69  69 100 W6        29.97S
DANVILLE*      CLOUDY    70  68  94 CALM      30.01R
LEXINGTON      MOCLDY    70  68  93 CALM      29.99R
FRANKFORT      CLOUDY    71  69  93 W5        29.97R FOG
LOUISVILLE     CLOUDY    73  70  90 W8        29.97R
LEBANON*         N/A     68  68 100 CALM      29.99S
GLASGOW*       CLOUDY   N/A N/A N/A NW3       29.99S
BOWLING GREEN  CLOUDY    73  72  96 W5        29.99F
$$

KYZ091>093-OHZ055-061-077-WVZ005-015-034-035-042-230600
...SOUTHERN OHIO/WEST VIRGINIA...

CITY           SKY/WX    TMP DP  RH WIND       PRES   REMARKS
COVINGTON      CLOUDY    71  67  87 N9        29.97R
COLUMBUS       CLOUDY    71  63  75 NW12      29.93R
DAYTON         PTCLDY    64  60  87 NW8       29.98R
WILMINGTON     CLOUDY    69  66  90 NW7       29.96R
HUNTINGTON     CLOUDY    72  70  93 W3        29.94R
CHARLESTON     CLOUDY    72  70  93 SW3       29.93F
PINEVILLE*     CLOUDY    71  69  96 MISG      30.03F FOG
BECKLEY        CLOUDY    69  67  93 SW3       30.02S
BLUEFIELD      PTCLDY    69  62  78 W6        30.04S
LOGAN CO APT*  FOG       70  70 100 CALM      29.97F VSB 1
$$

VAZ002-007-008-TNZ017-027-036-066-071-230600
...SOUTHWEST VIRGINIA/EAST TENNESSEE...

CITY           SKY/WX    TMP DP  RH WIND       PRES   REMARKS
WISE*          RAIN      70  70 100 CALM      30.07R
JONESVILLE*    LGT RAIN  73  72  94 N3        30.02R
ABINGDON*      PTCLDY    73  67  82 CALM      30.02S
BRISTOL        CLOUDY    71  67  87 CALM      29.99S
MORRISTOWN*    PTCLDY    79  68  69 W8        29.98R
SEVIERVILLE*   PTCLDY    73  64  73 CALM      29.97R
KNOXVILLE      MOCLDY    78  68  71 SW8       29.96S
LAFOLLETTE*      N/A     73  72  94 VRB3G14   30.02R FOG
OAK RIDGE      CLOUDY    78  69  73 CALM      29.98R
CROSSVILLE     MOCLDY    71  68  90 W8        30.05R
NASHVILLE      CLOUDY    73  71  93 W6        30.01S
$$

...KEY TO REMARKS...
VSB - VISIBILITY IN MILES
WCI - WIND CHILL INDEX
HX  - HEAT INDEX

$$




USA.gov is the U.S. government's official web portal to all federal, state and local government web resources and services.